Location: Newark
(47.5989°N, 4.6950°E)
Time: 22:39:52
(UTC+00:00)

ISS - Pass Details

Date: 24 November 2019
Orbit: 411 x 421 km, 51.6° (Epoch: 12 December)

Event Time Altitude Azimuth Distance (km) Brightness Sun altitude
Rises 17:23:39 0° 221° (SW) 2,344 1.0 -14.4°
Reaches altitude 10° 17:25:50 10° 212° (SSW) 1,487 -0.3 -14.7°
Maximum altitude 17:28:55 35° 145° (SE) 689 -2.9 -15.2°
Enters shadow 17:29:47 30° 110° (ESE) 784 -2.8 -15.4°
